Location: Unspecified
(0.0000°N, 0.0000°E)
Time: 04:30:31
(UTC+00:00)

deb Delta 104 - Pass Details

Date: 07 March 2026
Orbit: 1430 x 1579 km, 102.3° (Epoch: 17 April)

Event Time Altitude Azimuth Distance (km) Brightness Sun altitude
Rises 04:18:28 0° 30° (NNE) 4,752 ? -28.0°
Reaches altitude 10° 04:21:30 10° 36° (NE) 3,772 ? -27.3°
Maximum altitude 04:29:56 48° 107° (ESE) 1,977 ? -25.2°
Drops below altitude 10° 04:38:17 10° 178° (S) 3,740 ? -23.1°
Sets 04:41:15 0° 183° (S) 4,709 ? -22.4°
